This demonstration page uses our WeatherBlox Daily Observations layout. Learn more.

Left ArrowRight Arrow

Hourly Observations for July 2, 2015

Temp ( °F °C ) Dew Point ( °F °C ) Humidity (%) Winds ( mph kmh ) Pressure ( in mb ) Visibility ( mi km ) Precip ( " mm )
2:55 pm 14:55 Cloudy 72 22 68 20 88 88 NW 7 11 29.94 1014 10 16.0934 0 0
3:15 pm 15:15 Cloudy 72 22 68 20 88 88 WNW 8 13 29.94 1014 10 16.0934 0 0
3:35 pm 15:35 Cloudy 72 22 68 20 88 88 WNW 8 13 29.94 1014 10 16.0934 0 0
3:55 pm 15:55 Cloudy 72 22 70 21 94 94 W 3 6 29.94 1014 7 11.26538 0 0
4:15 pm 16:15 Cloudy 73 23 68 20 83 83 WNW 6 9 29.91 1013 10 16.0934 0 0
4:35 pm 16:35 Mostly Cloudy 73 23 68 20 83 83 WNW 6 9 29.91 1013 10 16.0934 0 0
4:55 pm 16:55 Partly Cloudy 73 23 68 20 83 83 WNW 6 9 29.91 1013 10 16.0934 0 0
5:15 pm 17:15 Partly Cloudy 73 23 68 20 83 83 SW 3 6 29.91 1013 10 16.0934 0 0
5:35 pm 17:35 Sunny 73 23 68 20 83 83 Calm 29.91 1013 10 16.0934 0 0
5:55 pm 17:55 Sunny 73 23 68 20 83 83 SSW 6 9 29.91 1013 10 16.0934 0 0
6:15 pm 18:15 Sunny 73 23 68 20 83 83 SSW 6 9 29.91 1013 10 16.0934 0 0
6:35 pm 18:35 Sunny 73 23 68 20 83 83 SSW 6 9 29.91 1013 10 16.0934 0 0
6:55 pm 18:55 Sunny 72 22 68 20 88 88 Calm 29.91 1013 10 16.0934 0 0
7:15 pm 19:15 Sunny 72 22 68 20 88 88 SSE 3 6 29.91 1013 10 16.0934 0 0
7:35 pm 19:35 Sunny 72 22 68 20 88 88 SE 3 6 29.91 1013 10 16.0934 0 0
7:55 pm 19:55 Sunny 72 22 68 20 88 88 NW 3 6 29.91 1013 10 16.0934 0 0
8:15 pm 20:15 Sunny 72 22 68 20 88 88 Calm 29.91 1013 10 16.0934 0 0
8:35 pm 20:35 Sunny 70 21 68 20 94 94 Calm 29.91 1013 10 16.0934 0 0
8:55 pm 20:55 Clear 68 20 68 20 100 100 Calm 29.91 1013 10 16.0934 0 0
9:15 pm 21:15 Clear 68 20 68 20 100 100 Calm 29.94 1014 7 11.26538 0 0
9:35 pm 21:35 Clear 68 20 68 20 100 100 Calm 29.94 1014 7 11.26538 0 0
9:55 pm 21:55 Clear 68 20 68 20 100 100 W 3 6 29.94 1014 7 11.26538 0 0
10:15 pm 22:15 Clear with Mist and Fog 66 19 66 19 100 100 W 3 6 29.94 1014 5 8.0467 0 0
10:35 pm 22:35 Clear with Mist and Fog 66 19 66 19 100 100 Calm 29.94 1014 5 8.0467 0 0
10:55 pm 22:55 Clear with Mist and Fog 66 19 66 19 100 100 Calm 29.94 1014 4 6.43736 0 0
11:15 pm 23:15 Clear with Mist and Fog 66 19 66 19 100 100 NW 5 7 29.94 1014 5 8.0467 0 0
11:35 pm 23:35 Clear with Mist and Fog 64 18 64 18 100 100 Calm 29.94 1014 4 6.43736 0 0
11:55 pm 23:55 Clear with Mist and Fog 64 18 64 18 100 100 NW 5 7 29.94 1014 5 8.0467 0 0

Powered by AerisWeather